Regional Weather Roundup
Issued by NWS

Home | Current Version | Previous Version | Text Only | Print | Product List | Glossary Off
Versions: 1 2 3 4 5 6 7 8 9 10 11 12 13 14 15 16 17 18 19 20 21 22 23 24 25 26 27 28 29 30 31 32 33 34 35 36 37 38 39 40 41 42 43 44 45 46 47 48 49 50

000
ASUS43 KMKX 261900
RWRWI

WISCONSIN REGIONAL WEATHER ROUNDUP
NATIONAL WEATHER SERVICE MILWAUKEE/SULLIVAN WI
200 PM CDT TUE JUL 26 2016

NOTE: "FAIR" INDICATES FEW OR NO CLOUDS BELOW 12,000 FEET WITH NO
SIGNIFICANT WEATHER AND/OR OBSTRUCTIONS TO VISIBILITY.

WIZ001-002-006>008-014>016-023>028-262000-
NORTHWEST WISCONSIN

CITY           SKY/WX    TMP DP  RH WIND       PRES   REMARKS
SUPERIOR ARPT  MOSUNNY   82  68  64 W10       29.95S HX  84
ASHLAND        MOSUNNY   83  67  58 SW10      29.94F HX  85
HAYWARD        MOSUNNY   84  65  52 W12       29.98F HX  86
SIREN          CLOUDY    86  66  51 SW13      29.98F HX  88
CUMBERLAND     SUNNY     82  63  51 SW15G23   30.01F HX  83
RICE LAKE      SUNNY     85  66  52 SW10G16   30.02F HX  87
CHETEK         SUNNY     86  66  51 MISG      30.01F HX  88
LADYSMITH      SUNNY     85  64  49 SW10      30.03F HX  87
EAU CLAIRE     NOT AVBL
MENOMONIE      SUNNY     89  65  44 SW10G16   30.02F HX  91
NEW RICHMOND   SUNNY     86  60  41 SW14      30.01F HX  86
OSCEOLA        SUNNY     88  62  41 SW16      30.02F HX  88
$$

WIZ003>005-009-010-017-018-262000-
NORTH CENTRAL WISCONSIN

CITY           SKY/WX    TMP DP  RH WIND       PRES   REMARKS
MANITOWISH WTR MOSUNNY   85  63  47 SW10G17   29.99F HX  85
ARBOR VITAE    SUNNY     85  64  49 W10G17    30.00F HX  86
WOODRUFF       SUNNY     85  64  49 W10G17    30.00F HX  86
RHINELANDER    SUNNY     88  61  40 W15G23    30.02F HX  88
EAGLE RIVER    SUNNY     84  60  43 SW17      30.01F HX  84
LAND O LAKES   SUNNY     86  60  41 W8G18     30.01F HX  86
PHILLIPS       MOSUNNY   84  66  54 SW15      30.00F HX  86
TOMAHAWK       SUNNY     85  59  41 W9        30.03F HX  85
MEDFORD        SUNNY     82  68  62 SW10      30.05F HX  84
MERRILL        SUNNY     86  66  52 W14       30.04S HX  88
$$

WIZ029-030-035-036-043>047-262000-
CENTRAL WISCONSIN

CITY           SKY/WX    TMP DP  RH WIND       PRES   REMARKS
WAUSAU         SUNNY     85  64  49 W10G20    30.02F HX  86
MOSINEE        MOSUNNY   84  63  48 W10G18    30.05F HX  85
MARSHFIELD     SUNNY     86  65  49 W10       30.05F HX  88
STEVENS POINT  MOSUNNY   83  64  52 SW9       30.05F HX  84
WAUPACA        SUNNY     88  64  44 SW8       30.03F HX  89
WAUTOMA        MOSUNNY   87  66  49 W8        30.04F HX  89
WISC RAPIDS    MOSUNNY   88  62  41 VRB7      30.05F HX  88
CAMP DOUGLAS   NOT AVBL
$$

WIZ011>013-019>022-031-037>040-048>050-262000-
NORTHEAST WISCONSIN

CITY           SKY/WX    TMP DP  RH WIND       PRES   REMARKS
ANTIGO         MOSUNNY   83  64  52 W15G21    30.05S HX  85
SHAWANO        MOSUNNY   87  65  49 SW7       30.01F HX  88
OCONTO         MOSUNNY   86  66  52 W9        29.99F HX  88
STURGEON BAY   SUNNY     85  67  54 W12       30.01F HX  87
GREEN BAY      SUNNY     85  69  58 SW7       30.02F HX  89
MANITOWOC      NOT AVBL
APPLETON       PTSUNNY   82  61  47 SW9       30.03F HX  83
CLINTONVILLE   PTSUNNY   86  63  45 SW10      30.02F HX  87
OSHKOSH        MOSUNNY   84  62  47 SW5       30.03F HX  85
$$

WIZ032>034-041-042-053>061-262000-
SOUTHWEST WISCONSIN

CITY           SKY/WX    TMP DP  RH WIND       PRES   REMARKS
LA CROSSE      MOSUNNY   88  66  48 W6        30.04F HX  90
SPARTA         MOSUNNY   85  65  50 W7        30.06F HX  87
VIROQUA        MOSUNNY   83  62  48 CALM      30.09F HX  84
BOSCOBEL       SUNNY     87  64  46 CALM      30.05F HX  88
PRAIRIE DU CHI SUNNY     84  60  43 CALM      30.05F HX  83
PLATTEVILLE    MOSUNNY   82  66  57 CALM      30.08F HX  84
$$

WIZ056-057-062-063-064-067-068-262000-
SOUTH CENTRAL WISCONSIN

CITY           SKY/WX    TMP DP  RH WIND       PRES   REMARKS
REEDSBURG      PTSUNNY   83  66  56 S6        30.07S HX  85
BARABOO/DELLS  MOSUNNY   84  62  47 SW8       30.07S HX  84
LONE ROCK      NOT AVBL
MINERAL POINT  MOSUNNY   84  61  45 CALM      30.09S HX  84
MADISON        MOSUNNY   85  58  39 W5        30.06S HX  84
MIDDLETON      SUNNY     83  63  49 W7        30.07S HX  84
WATERTOWN      SUNNY     83  64  52 W3        30.06S HX  84
MONROE         PTSUNNY   81  61  50 CALM      30.08S HX  81
JANESVILLE     MOSUNNY   86  61  42 CALM      30.05S HX  86
$$

WIZ051-052-058>065-066-070>072-262000-
SOUTHEAST WISCONSIN

CITY           SKY/WX    TMP DP  RH WIND       PRES   REMARKS
MILWAUKEE      MOSUNNY   84  59  42 E10       30.04F HX  84
WAUKESHA       MOSUNNY   82  59  44 W3        30.06F HX  82
MILWAUKEE/TIMM MOSUNNY   86  52  30 E8        30.04F HX  84
RACINE         SUNNY     83  61  47 E9        30.06F HX  83
BURLINGTON     SUNNY     84  58  41 CALM      30.05S HX  84
KENOSHA        SUNNY     85  62  46 E9        30.05S HX  85
FOND DU LAC    PTSUNNY   86  63  45 VRB7      30.04F HX  87
SHEBOYGAN      MOSUNNY   85  61  44 CALM      30.03F HX  85
WEST BEND      MOSUNNY   86  55  35 SW6       30.05F HX  84
JUNEAU         SUNNY     82  63  52 W5        30.07F HX  83
$$

LSZ147-162-262000-
LAKE SUPERIOR

STATION/POSITION TIME  TEMP    WIND        PRES    WAVE
                       AIR SEA DIR/SP/G            HT/PER
                 (UTC) (F)     (DEG/KT/KT) (MB)    (FT/S)
W MID LAKE BUOY  1750   63 62   20/  2/  4 1013.2F   1
DEVILS ISLAND    1800   73     240/ 16/ 18 1012.8F
SAXON HARBOR     1840   86     220/  4/  8 1013.2F
$$

LMZ867-665-643>646-262000-
LAKE MICHIGAN

STATION/POSITION TIME  TEMP    WIND        PRES    WAVE
                       AIR SEA DIR/SP/G            HT/PER
                 (UTC) (F)     (DEG/KT/KT) (MB)    (FT/S)
CHAMBERS ISLAND  1800   80     170/  6/ 11 1015.6F
S GREEN BAY BUOY 1800   78 76  190/ 10/ 10   N/A
N MID LAKE BUOY  1750   71 71  200/ 10/ 12 1015.0F   0
NORTHPORT PIER   1800   80     130/  4/  6 1015.2F
SISTER BAY       1706   84     300/  8/  8   N/A
ALGOMA LAKESHORE 1813          220/ 11/ 13   N/A
KEWAUNEE LAKESHO 1800   71     170/  8/ 11 1016.3F
SHEBOYGAN LAKESH 1800   73     150/ 10/ 10 1017.5F
PORT WASHINGTON  1840   77     190/  6/  7 1017.9F
ATWATER BUOY     1800   68 54  160/  2/  4 1019.5F
MILWAUKEE LAKESH 1810   71     130/  2/  2   N/A
S MID LAKE BUOY  1750   76 78  180/  4/  6 1017.1F   0
KENOSHA   LAKESH 1800   75     140/  5/  5 1017.3F
$$

TC  - TEMPERATURE IN CELSIUS
VSB - VISIBILITY IN STATUTE MILES
WCI - WIND CHILL INDEX
HX  - HEAT INDEX





USA.gov is the U.S. government's official web portal to all federal, state and local government web resources and services.